{"data":{"norad_id":50198,"intl_designator":"2021-125AU","name":"STARLINK-3264","alt_names":[],"object_type":"PAYLOAD","status":"ACTIVE","operator":null,"country":"US","launch_date":"2021-12-18","launch_site_code":"AFWTR","launch_vehicle":null,"mission":null,"orbit_class":"UNKNOWN","rcs_meters":null,"size_class":null,"mass_kg":null,"dimensions":null,"purposes":["comms"],"wikipedia_slug":null,"has_3d_model":false,"image_url":null,"decayed_at":null,"tle_current":{"epoch":"2026-05-24T17:18:56.424960Z","epoch_age_seconds":99226,"freshness":"FRESH","line1":"1 50198U 21125AU  26144.72148640  .00000291  00000+0  36369-4 0  9995","line2":"2 50198  53.2161 257.7999 0001233  92.3392 267.7742 15.08838557248210","mean_motion":15.08838557,"eccentricity":0.0001233,"inclination_deg":53.2161,"raan_deg":257.7999,"arg_perigee_deg":92.3392,"mean_anomaly_deg":267.7742,"bstar":3.6369e-5,"rev_number":24821,"period_min":95.437645950878,"perigee_km":538.89482444554,"apogee_km":540.60077483713,"semimajor_km":6917.8847996413,"source":"CELESTRAK","updated_at":"2026-05-25T13:38:16.872181Z"}}}